This is the latest recevied weather packets stored in our database for station/object KA9CBS. If no packets are shown the sender has not sent any weather packets the latest 10 day(s).
| Time | Temp. | Humidity | Pressure | Rain* | Wind** | Luminosity | Snow |
|---|---|---|---|---|---|---|---|
| 1787444244 | 25.56° C | 69% | 1017.5 hPa | 0 mm | - | 12 W/m² | - |
| 1787443944 | 26.11° C | 69% | 1017.4 hPa | 0 mm | - | 16 W/m² | - |
| 1787443642 | 26.11° C | 68% | 1017.5 hPa | 0 mm | - | 18 W/m² | - |
| 1787443338 | 26.11° C | 69% | 1017.5 hPa | 0 mm | - | 21 W/m² | - |
| 1787443037 | 26.11° C | 68% | 1017.6 hPa | 0 mm | - | 25 W/m² | - |
| 1787442734 | 26.67° C | 68% | 1017.8 hPa | 0 mm | - | 27 W/m² | - |
| 1787442430 | 26.67° C | 67% | 1017.5 hPa | 0 mm | - | 29 W/m² | - |
| 1787442130 | 26.67° C | 68% | 1017.6 hPa | 0 mm | - | 29 W/m² | - |
| 1787441825 | 26.67° C | 67% | 1017.8 hPa | 0 mm | - | 34 W/m² | - |
| 1787441520 | 27.22° C | 65% | 1017.8 hPa | 0 mm | - | 36 W/m² | - |
| 1787441215 | 27.22° C | 65% | 1017.4 hPa | 0 mm | - | 38 W/m² | - |
| 1787440911 | 27.22° C | 65% | 1017.4 hPa | 0 mm | - | 39 W/m² | - |
| 1787440610 | 27.22° C | 66% | 1017.4 hPa | 0 mm | - | 40 W/m² | - |
| 1787440301 | 27.22° C | 65% | 1017.4 hPa | 0 mm | - | 43 W/m² | - |
| 1787439998 | 27.22° C | 64% | 1017.4 hPa | 0 mm | - | 48 W/m² | - |
| 1787439693 | 27.22° C | 63% | 1017.3 hPa | 0 mm | - | 45 W/m² | - |
| 1787439389 | 27.22° C | 62% | 1017.2 hPa | 0 mm | - | 49 W/m² | - |
| 1787439085 | 27.78° C | 61% | 1017.3 hPa | 0 mm | - | 59 W/m² | - |
| 1787438780 | 27.78° C | 64% | 1017.2 hPa | 0 mm | - | 52 W/m² | - |
| 1787438479 | 27.78° C | 63% | 1017.2 hPa | 0 mm | - | 51 W/m² | - |
| 1787438174 | 27.78° C | 62% | 1017.2 hPa | 0 mm | - | 54 W/m² | - |
| 1787437869 | 27.78° C | 62% | 1017.2 hPa | 0 mm | - | 54 W/m² | - |
| 1787437566 | 27.78° C | 62% | 1017.2 hPa | 0 mm | - | 57 W/m² | - |
| 1787437262 | 27.78° C | 60% | 1017.1 hPa | 0 mm | - | 58 W/m² | - |
| 1787436958 | 27.78° C | 62% | 1016.9 hPa | 0 mm | - | 62 W/m² | - |
* Rain latest hour (hover to see other rain measurements)
** Current wind speed in m/s (hover to see current wind gust speed)